Anchorage Merrill, AK

4:44 AM AKDT on September 22, 2017 (GMT -0800)
Merrill

Weather History for PAMR - November, 2014

Change the Weather History Date:

Sunday, November 30, 2014

  Actual Average Record
Temperature  
Mean Temperature 23 °F -  
Max Temperature 27 °F 22 °F 43 °F (2002)
Min Temperature 19 °F 11 °F -9 °F (2013)
Degree Days  
Heating Degree Days 42    
Moisture  
Dew Point 19 °F    
Average Humidity 87    
Maximum Humidity 93    
Minimum Humidity 81    
Precipitation  
Precipitation 0.00 in - - ()
Sea Level Pressure  
Sea Level Pressure 30.10 in    
Wind  
Wind Speed 3 mph (NNE)    
Max Wind Speed 7 mph    
Max Gust Speed -    
Visibility 8 miles    
Events Fog , Snow    
Averages and records for this station are not official NWS values.
T = Trace of Precipitation, MM = Missing Value Source: NWS Daily Summary

Daily Weather History Graph

Daily Weather History Graph

Search for Another Location

Airport or City:

Trip Planner

Search our weather history database for the weather conditions in past years. The results will help you decide how hot, cold, wet, or windy it might be!

Date:

Astronomy

Nov. 30, 2014 Rise Set
Actual Time 9:43 AM AKST 3:52 PM AKST
Civil Twilight 8:45 AM AKST 4:50 PM AKST
Nautical Twilight 7:48 AM AKST 5:47 PM AKST
Astronomical Twilight 6:55 AM AKST 6:40 PM AKST
Moon 2:07 PM AKST (11/30) 1:37 AM AKST (11/30)
Length of Visible Light 8h 04m
Length of Day
6h 09m
Waxing Gibbous, 66% of the Moon is Illuminated
Nov 30
Waxing Gibbous
Dec 6
Full
Dec 14
Last Quarter
Dec 21
New
Dec 28
First Quarter

Hourly Weather History & Observations

Time (AKST) Temp. Windchill Dew Point Humidity Pressure Visibility Wind Dir Wind Speed Gust Speed Precip Events Conditions
12:53 AM 25.0 °F - 21.9 °F 88% 30.16 in 10.0 mi Calm Calm - 0.00 in Snow Light Snow
1:53 AM 26.1 °F - 23.0 °F 88% 30.16 in 9.0 mi Calm Calm - 0.00 in Snow Light Snow
2:53 AM 26.1 °F - 23.0 °F 88% 30.16 in 9.0 mi Calm Calm - 0.00 in Snow Light Snow
3:53 AM 27.0 °F - 23.0 °F 85% 30.16 in 9.0 mi Calm Calm - 0.00 in Snow Light Snow
4:53 AM 27.0 °F 21.6 °F 21.9 °F 81% 30.15 in 10.0 mi North 4.6 mph - 0.00 in   Overcast
5:53 AM 26.1 °F 21.9 °F 21.9 °F 84% 30.16 in 10.0 mi North 3.5 mph - 0.00 in Snow Light Snow
6:53 AM 25.0 °F 19.3 °F 21.0 °F 85% 30.16 in 6.0 mi NNE 4.6 mph - 0.00 in Snow Light Snow
7:53 AM 24.1 °F 16.0 °F 19.9 °F 84% 30.14 in 7.0 mi North 6.9 mph - 0.00 in   Overcast
8:09 AM 24.1 °F 17.0 °F 21.0 °F 88% 30.13 in 10.0 mi North 5.8 mph - N/A   Overcast
8:20 AM 24.1 °F 18.2 °F 21.0 °F 88% 30.13 in 2.0 mi North 4.6 mph - N/A Fog Light Freezing Fog
8:53 AM 23.0 °F 17.0 °F 19.9 °F 88% 30.14 in 3.0 mi North 4.6 mph - N/A Fog Light Freezing Fog
9:38 AM 23.0 °F 15.8 °F 19.0 °F 85% 30.13 in 1.0 mi North 5.8 mph - N/A Fog Light Freezing Fog
9:51 AM 21.2 °F 14.9 °F 19.4 °F 93% 30.13 in 5.0 mi NNE 4.6 mph - N/A   Overcast
9:53 AM 21.9 °F 15.7 °F 19.0 °F 89% 30.14 in 5.0 mi NNE 4.6 mph - N/A   Overcast
10:00 AM 21.9 °F 17.2 °F 19.0 °F 89% 30.12 in 5.0 mi NNE 3.5 mph - N/A   Overcast
10:04 AM 21.9 °F 17.2 °F 19.0 °F 89% 30.12 in 5.0 mi NNE 3.5 mph - N/A   Overcast
10:20 AM 21.9 °F 15.7 °F 19.0 °F 89% 30.12 in 10.0 mi NNE 4.6 mph - N/A   Overcast
10:53 AM 21.9 °F 15.7 °F 19.0 °F 89% 30.13 in 10.0 mi North 4.6 mph - N/A   Overcast
11:53 AM 21.9 °F 15.7 °F 19.0 °F 89% 30.13 in 10.0 mi NE 4.6 mph - N/A   Overcast
12:00 PM 21.9 °F 17.2 °F 19.0 °F 89% 30.12 in 10.0 mi Variable 3.5 mph - N/A   Overcast
12:53 PM 21.9 °F - 18.0 °F 85% 30.12 in 10.0 mi Calm Calm - N/A   Overcast
1:53 PM 21.9 °F - 18.0 °F 85% 30.12 in 10.0 mi Calm Calm - N/A   Overcast
2:53 PM 21.9 °F 15.7 °F 18.0 °F 85% 30.08 in 10.0 mi NE 4.6 mph - N/A   Overcast
3:53 PM 21.9 °F - 17.1 °F 82% 30.07 in 10.0 mi Calm Calm - N/A   Overcast
4:53 PM 21.0 °F 16.2 °F 17.1 °F 85% 30.06 in 10.0 mi Variable 3.5 mph - N/A   Overcast
5:53 PM 21.0 °F 14.6 °F 16.0 °F 81% 30.05 in 10.0 mi North 4.6 mph - N/A   Overcast
6:53 PM 21.0 °F 14.6 °F 18.0 °F 88% 30.03 in 10.0 mi North 4.6 mph - N/A   Overcast
7:53 PM 19.9 °F 14.9 °F 17.1 °F 89% 30.01 in 10.0 mi North 3.5 mph - N/A   Overcast
8:53 PM 21.0 °F 14.6 °F 17.1 °F 85% 29.99 in 10.0 mi NNE 4.6 mph - N/A   Overcast
9:53 PM 21.0 °F 16.2 °F 17.1 °F 85% 29.99 in 10.0 mi NE 3.5 mph - N/A   Overcast
10:53 PM 21.0 °F 13.4 °F 17.1 °F 85% 29.97 in 9.0 mi NNE 5.8 mph - N/A   Overcast
11:53 PM 21.0 °F 16.2 °F 17.1 °F 85% 29.97 in 10.0 mi North 3.5 mph - N/A   Overcast